Location: Unspecified
(0.0000°N, 0.0000°E)
Time: 04:51:01
(UTC+00:00)

Envisat - Pass Details

Date: 26 May 2019
Orbit: 764 x 766 km, 98.1° (Epoch: 25 June)

Event Time Altitude Azimuth Distance (km) Brightness Sun altitude
Rises 18:13:32 0° 148° (SSE) 3,231 5.7 -3.8°
Reaches altitude 10° 18:16:08 10° 137° (SE) 2,302 4.9 -4.4°
Maximum altitude 18:20:28 29° 78° (ENE) 1,381 3.9 -5.5°
Drops below altitude 10° 18:24:47 10° 19° (NNE) 2,294 5.5 -6.5°
Sets 18:27:20 0° 8° (N) 3,216 6.4 -7.1°
